SWA2116 KEUG-KSJC

Flight info

Callsign SWA2116
Flight time 1h 20m
Altitude 39000
Route RBG HUPTU FRLON FRLON2
Aircraft B737/M-SADE2E3GIJ4RWZ/LB1D1

Departure

Time 2026-04-20 06:03
Airport Eugene Airport (KEUG)

Arrival

Time 2026-04-20 07:24
Airport Norman Y. Mineta San Jose International Airport (KSJC)
Time Latitude Longitude Altitude Speed Heading
2026-04-20 05:49 44.12014 -123.21352 365 ft 0 kts 242°
2026-04-20 05:54 44.12015 -123.21348 369 ft 3 kts 241°
2026-04-20 05:54 44.12029 -123.21316 369 ft 4 kts 233°
2026-04-20 05:54 44.12043 -123.21287 370 ft 4 kts 264°
2026-04-20 05:55 44.12047 -123.21280 367 ft 0 kts 340°
2026-04-20 05:59 44.12058 -123.21286 369 ft 6 kts 340°
2026-04-20 05:59 44.12097 -123.21355 372 ft 14 kts 282°
2026-04-20 05:59 44.12184 -123.21482 367 ft 23 kts 328°
2026-04-20 06:00 44.12318 -123.21596 362 ft 22 kts 328°
2026-04-20 06:00 44.12450 -123.21704 357 ft 22 kts 341°
2026-04-20 06:00 44.12598 -123.21712 359 ft 21 kts 359°
2026-04-20 06:00 44.12742 -123.21713 359 ft 20 kts
2026-04-20 06:01 44.12881 -123.21716 361 ft 20 kts 359°
2026-04-20 06:01 44.13017 -123.21718 358 ft 19 kts 359°
2026-04-20 06:01 44.13148 -123.21721 360 ft 19 kts 359°
2026-04-20 06:01 44.13274 -123.21722 357 ft 18 kts 360°
2026-04-20 06:02 44.13397 -123.21724 359 ft 17 kts 359°
2026-04-20 06:02 44.13515 -123.21730 358 ft 16 kts 340°
2026-04-20 06:02 44.13536 -123.21869 356 ft 15 kts 270°
2026-04-20 06:02 44.13489 -123.21917 358 ft 10 kts 176°
2026-04-20 06:03 44.13406 -123.21914 356 ft 38 kts 179°
2026-04-20 06:03 44.12870 -123.21906 357 ft 114 kts 179°
2026-04-20 06:03 44.11493 -123.21888 685 ft 162 kts 179°
2026-04-20 06:03 44.10742 -123.21887 1299 ft 160 kts 181°
2026-04-20 06:04 44.09584 -123.21949 1957 ft 175 kts 186°
2026-04-20 06:04 44.08309 -123.22220 2323 ft 199 kts 191°
2026-04-20 06:04 44.06909 -123.22526 2891 ft 207 kts 188°
2026-04-20 06:04 44.05436 -123.22799 3463 ft 221 kts 186°
2026-04-20 06:05 44.03833 -123.23112 3819 ft 244 kts 186°
2026-04-20 06:05 44.02082 -123.23380 4172 ft 266 kts 182°
2026-04-20 06:05 44.00186 -123.23585 4759 ft 277 kts 181°
2026-04-20 06:05 43.98267 -123.23763 5667 ft 274 kts 181°
2026-04-20 06:06 43.96414 -123.23955 6868 ft 260 kts 181°
2026-04-20 06:06 43.94622 -123.24181 7901 ft 258 kts 183°
2026-04-20 06:06 43.92834 -123.24434 8835 ft 259 kts 183°
2026-04-20 06:06 43.91041 -123.24692 9819 ft 259 kts 183°
2026-04-20 06:07 43.89255 -123.24949 10569 ft 267 kts 183°
2026-04-20 06:07 43.87314 -123.25226 10789 ft 294 kts 183°
2026-04-20 06:07 43.85192 -123.25529 11098 ft 315 kts 184°
2026-04-20 06:07 43.82987 -123.25849 11782 ft 322 kts 184°
2026-04-20 06:08 43.80748 -123.26177 12654 ft 324 kts 184°
2026-04-20 06:08 43.78494 -123.26507 13561 ft 326 kts 184°
2026-04-20 06:08 43.76224 -123.26839 14348 ft 330 kts 184°
2026-04-20 06:08 43.73925 -123.27174 15136 ft 334 kts 184°
2026-04-20 06:09 43.71602 -123.27512 16007 ft 337 kts 184°
2026-04-20 06:09 43.69260 -123.27852 16810 ft 340 kts 184°
2026-04-20 06:09 43.66902 -123.28195 17599 ft 343 kts 184°
2026-04-20 06:09 43.64540 -123.28537 18335 ft 347 kts 184°
2026-04-20 06:10 43.62093 -123.28891 18997 ft 352 kts 185°
2026-04-20 06:10 43.59647 -123.29245 19671 ft 355 kts 185°
2026-04-20 06:10 43.57176 -123.29603 20327 ft 359 kts 185°
2026-04-20 06:10 43.54676 -123.29964 20976 ft 363 kts 185°
2026-04-20 06:11 43.52152 -123.30328 21587 ft 367 kts 185°
2026-04-20 06:11 43.49603 -123.30695 22236 ft 370 kts 185°
2026-04-20 06:11 43.47030 -123.31066 22867 ft 373 kts 185°
2026-04-20 06:11 43.44442 -123.31439 23464 ft 377 kts 185°
2026-04-20 06:12 43.41817 -123.31817 23994 ft 380 kts 185°
2026-04-20 06:12 43.39183 -123.32196 24559 ft 382 kts 185°
2026-04-20 06:12 43.36534 -123.32576 25128 ft 383 kts 185°
2026-04-20 06:12 43.33874 -123.32958 25664 ft 385 kts 185°
2026-04-20 06:13 43.31205 -123.33340 26160 ft 387 kts 185°
2026-04-20 06:13 43.28517 -123.33725 26608 ft 390 kts 185°
2026-04-20 06:13 43.25822 -123.34111 27106 ft 391 kts 185°
2026-04-20 06:13 43.23109 -123.34498 27610 ft 392 kts 185°
2026-04-20 06:14 43.20389 -123.34886 28075 ft 394 kts 185°
2026-04-20 06:14 43.17660 -123.35061 28474 ft 396 kts 179°
2026-04-20 06:14 43.14889 -123.34710 28885 ft 399 kts 173°
2026-04-20 06:14 43.12129 -123.34209 29352 ft 401 kts 173°
2026-04-20 06:15 43.09367 -123.33705 29805 ft 402 kts 173°
2026-04-20 06:15 43.06589 -123.33202 30194 ft 402 kts 173°
2026-04-20 06:15 43.03817 -123.32707 30652 ft 401 kts 174°
2026-04-20 06:15 43.01059 -123.32219 31084 ft 399 kts 174°
2026-04-20 06:16 42.98352 -123.31744 31536 ft 397 kts 174°
2026-04-20 06:16 42.95577 -123.31259 31961 ft 396 kts 174°
2026-04-20 06:16 42.92844 -123.30784 32336 ft 396 kts 174°
2026-04-20 06:16 42.90120 -123.30312 32741 ft 394 kts 174°
2026-04-20 06:17 42.87440 -123.29847 33128 ft 393 kts 175°
2026-04-20 06:17 42.84727 -123.29378 33459 ft 394 kts 175°
2026-04-20 06:17 42.82011 -123.28909 33781 ft 393 kts 175°
2026-04-20 06:17 42.79260 -123.28433 34143 ft 392 kts 175°
2026-04-20 06:18 42.76595 -123.27973 34445 ft 391 kts 175°
2026-04-20 06:18 42.73894 -123.27507 34660 ft 392 kts 175°
2026-04-20 06:18 42.71178 -123.27039 34953 ft 392 kts 175°
2026-04-20 06:18 42.68502 -123.26578 35231 ft 392 kts 175°
2026-04-20 06:19 42.65794 -123.26113 35430 ft 393 kts 175°
2026-04-20 06:19 42.63498 -123.25718 35669 ft 393 kts 176°
2026-04-20 06:19 42.60782 -123.25252 35923 ft 393 kts 176°
2026-04-20 06:19 42.58073 -123.24787 36205 ft 392 kts 176°
2026-04-20 06:20 42.55376 -123.24324 36492 ft 391 kts 176°
2026-04-20 06:20 42.52674 -123.23861 36733 ft 392 kts 176°
2026-04-20 06:20 42.49967 -123.23398 37005 ft 391 kts 176°
2026-04-20 06:20 42.47280 -123.22938 37309 ft 389 kts 176°
2026-04-20 06:21 42.44578 -123.22477 37431 ft 392 kts 176°
2026-04-20 06:21 42.41864 -123.22015 37561 ft 394 kts 176°
2026-04-20 06:21 42.39149 -123.21552 37894 ft 392 kts 176°
2026-04-20 06:21 42.36446 -123.21090 38092 ft 392 kts 176°
2026-04-20 06:22 42.33735 -123.20628 38221 ft 394 kts 176°
2026-04-20 06:22 42.31000 -123.20114 38107 ft 400 kts 176°
2026-04-20 06:22 42.28257 -123.19642 38511 ft 393 kts 176°
2026-04-20 06:22 42.25559 -123.19194 38806 ft 391 kts 176°
2026-04-20 06:23 42.20383 -123.18342 38853 ft 393 kts 176°
2026-04-20 06:23 42.14945 -123.17435 38836 ft 394 kts 176°
2026-04-20 06:24 42.10046 -123.16612 38853 ft 396 kts 176°
2026-04-20 06:24 42.04575 -123.15689 38853 ft 397 kts 177°
2026-04-20 06:25 41.99072 -123.14762 38867 ft 399 kts 176°
2026-04-20 06:25 41.93662 -123.13852 38866 ft 401 kts 176°
2026-04-20 06:26 41.88120 -123.12921 38859 ft 400 kts 176°
2026-04-20 06:26 41.82610 -123.11997 38867 ft 398 kts 176°
2026-04-20 06:27 41.77124 -123.11079 38862 ft 397 kts 176°
2026-04-20 06:27 41.71664 -123.10170 38883 ft 395 kts 176°
2026-04-20 06:28 41.66255 -123.09266 38886 ft 394 kts 176°
2026-04-20 06:28 41.60786 -123.08355 38872 ft 393 kts 176°
2026-04-20 06:29 41.55379 -123.07456 38897 ft 392 kts 176°
2026-04-20 06:29 41.49997 -123.06564 38882 ft 393 kts 177°
2026-04-20 06:30 41.44568 -123.05665 38894 ft 394 kts 177°
2026-04-20 06:30 41.39119 -123.04765 38896 ft 396 kts 176°
2026-04-20 06:31 41.33629 -123.03860 38903 ft 399 kts 176°
2026-04-20 06:31 41.28108 -123.02950 38907 ft 401 kts 177°
2026-04-20 06:32 41.22561 -123.02037 38909 ft 402 kts 177°
2026-04-20 06:32 41.16993 -123.01123 38886 ft 406 kts 177°
2026-04-20 06:33 41.11394 -123.00205 38882 ft 404 kts 178°
2026-04-20 06:33 41.05836 -122.99327 38855 ft 401 kts 178°
2026-04-20 06:34 41.00309 -122.98437 38897 ft 400 kts 177°
2026-04-20 06:35 40.92054 -122.97054 38891 ft 398 kts 178°
2026-04-20 06:35 40.86556 -122.96151 38895 ft 398 kts 178°
2026-04-20 06:36 40.81062 -122.95259 38867 ft 397 kts 178°
2026-04-20 06:36 40.75581 -122.94368 38852 ft 396 kts 178°
2026-04-20 06:37 40.70136 -122.93487 38864 ft 394 kts 178°
2026-04-20 06:37 40.64709 -122.92610 38872 ft 392 kts 178°
2026-04-20 06:38 40.59301 -122.91738 38892 ft 392 kts 178°
2026-04-20 06:38 40.53900 -122.90868 38878 ft 390 kts 178°
2026-04-20 06:39 40.48513 -122.90002 38882 ft 391 kts 178°
2026-04-20 06:39 40.43102 -122.89134 38893 ft 392 kts 178°
2026-04-20 06:40 40.37683 -122.88266 38879 ft 392 kts 179°
2026-04-20 06:40 40.32259 -122.87398 38871 ft 393 kts 179°
2026-04-20 06:41 40.26864 -122.86535 38905 ft 393 kts 179°
2026-04-20 06:41 40.21417 -122.85667 38848 ft 395 kts 179°
2026-04-20 06:42 40.15965 -122.84798 38876 ft 395 kts 179°
2026-04-20 06:42 40.10498 -122.83929 38881 ft 397 kts 179°
2026-04-20 06:43 40.05007 -122.83058 38883 ft 398 kts 179°
2026-04-20 06:43 39.99504 -122.82185 38881 ft 398 kts 179°
2026-04-20 06:44 39.94003 -122.81314 38880 ft 399 kts 179°
2026-04-20 06:44 39.88632 -122.80465 38892 ft 398 kts 179°
2026-04-20 06:45 39.83129 -122.79597 38889 ft 398 kts 179°
2026-04-20 06:45 39.77623 -122.78730 38896 ft 398 kts 179°
2026-04-20 06:46 39.72115 -122.77864 38897 ft 398 kts 179°
2026-04-20 06:46 39.66627 -122.77002 38888 ft 397 kts 179°
2026-04-20 06:47 39.61150 -122.76143 38898 ft 396 kts 180°
2026-04-20 06:47 39.55674 -122.75287 38894 ft 396 kts 180°
2026-04-20 06:48 39.50213 -122.74456 38903 ft 394 kts 182°
2026-04-20 06:48 39.44817 -122.74491 38898 ft 390 kts 187°
2026-04-20 06:49 39.39634 -122.74684 38898 ft 390 kts 187°
2026-04-20 06:49 39.35691 -122.74823 38912 ft 390 kts 187°
2026-04-20 06:50 39.29981 -122.75009 38894 ft 391 kts 187°
2026-04-20 06:50 39.25715 -122.75141 38910 ft 392 kts 188°
2026-04-20 06:51 39.20477 -122.75301 38910 ft 393 kts 187°
2026-04-20 06:51 39.15097 -122.75464 38917 ft 393 kts 187°
2026-04-20 06:51 39.12354 -122.75547 38805 ft 396 kts 188°
2026-04-20 06:52 39.09638 -122.75633 38274 ft 400 kts 188°
2026-04-20 06:52 39.06894 -122.75715 37672 ft 398 kts 188°
2026-04-20 06:52 39.04130 -122.75796 37071 ft 395 kts 188°
2026-04-20 06:52 39.01386 -122.75877 36468 ft 393 kts 188°
2026-04-20 06:53 38.98669 -122.75956 36023 ft 387 kts 188°
2026-04-20 06:53 38.95996 -122.76034 35560 ft 382 kts 188°
2026-04-20 06:53 38.93360 -122.76111 35116 ft 377 kts 188°
2026-04-20 06:53 38.90855 -122.76186 34671 ft 374 kts 188°
2026-04-20 06:54 38.88272 -122.76264 34242 ft 369 kts 188°
2026-04-20 06:54 38.85713 -122.76341 33806 ft 365 kts 188°
2026-04-20 06:54 38.83219 -122.76416 33332 ft 362 kts 188°
2026-04-20 06:54 38.80745 -122.76491 32922 ft 357 kts 187°
2026-04-20 06:55 38.78283 -122.76565 32494 ft 353 kts 187°
2026-04-20 06:55 38.75977 -122.76634 32073 ft 349 kts 187°
2026-04-20 06:55 38.73566 -122.76707 31704 ft 345 kts 187°
2026-04-20 06:55 38.71421 -122.76772 31311 ft 343 kts 187°
2026-04-20 06:56 38.69364 -122.76835 30873 ft 343 kts 187°
2026-04-20 06:56 38.66921 -122.76912 30146 ft 349 kts 187°
2026-04-20 06:56 38.65279 -122.76964 29641 ft 351 kts 186°
2026-04-20 06:56 38.63098 -122.77031 28948 ft 353 kts 186°
2026-04-20 06:57 38.60767 -122.77102 28221 ft 355 kts 186°
2026-04-20 06:57 38.58433 -122.77172 27511 ft 356 kts 186°
2026-04-20 06:57 38.55953 -122.77246 26777 ft 357 kts 185°
2026-04-20 06:57 38.53463 -122.77319 26059 ft 358 kts 185°
2026-04-20 06:58 38.50976 -122.77393 25284 ft 359 kts 185°
2026-04-20 06:58 38.48463 -122.77468 24436 ft 363 kts 185°
2026-04-20 06:58 38.45931 -122.77544 23599 ft 366 kts 185°
2026-04-20 06:58 38.43368 -122.77621 22590 ft 369 kts 184°
2026-04-20 06:59 38.40800 -122.77697 21624 ft 370 kts 184°
2026-04-20 06:59 38.38219 -122.77773 20685 ft 371 kts 184°
2026-04-20 06:59 38.35643 -122.77848 19779 ft 371 kts 183°
2026-04-20 06:59 38.33069 -122.77924 18909 ft 370 kts 183°
2026-04-20 07:00 38.30501 -122.77999 18052 ft 368 kts 183°
2026-04-20 07:00 38.27956 -122.78074 17218 ft 364 kts 183°
2026-04-20 07:00 38.25473 -122.78147 16401 ft 358 kts 182°
2026-04-20 07:00 38.23030 -122.78218 15576 ft 345 kts 182°
2026-04-20 07:01 38.20672 -122.78287 14811 ft 334 kts 182°
2026-04-20 07:01 38.18408 -122.78354 14460 ft 313 kts 182°
2026-04-20 07:01 38.16300 -122.78415 14202 ft 293 kts 182°
2026-04-20 07:01 38.14329 -122.78473 13952 ft 275 kts 182°
2026-04-20 07:02 38.12468 -122.78528 13689 ft 262 kts 182°
2026-04-20 07:02 38.10651 -122.78582 13427 ft 262 kts 182°
2026-04-20 07:02 38.08816 -122.78637 13176 ft 266 kts 182°
2026-04-20 07:02 38.06962 -122.78693 13039 ft 268 kts 182°
2026-04-20 07:03 38.05098 -122.78748 12995 ft 268 kts 182°
2026-04-20 07:03 38.03239 -122.78803 12991 ft 268 kts 182°
2026-04-20 07:03 38.01369 -122.78858 12995 ft 268 kts 182°
2026-04-20 07:03 37.99506 -122.78913 12981 ft 269 kts 182°
2026-04-20 07:04 37.97637 -122.78968 12991 ft 268 kts 182°
2026-04-20 07:04 37.95770 -122.79022 12975 ft 268 kts 182°
2026-04-20 07:04 37.93907 -122.79077 12972 ft 268 kts 182°
2026-04-20 07:04 37.92042 -122.79132 12974 ft 267 kts 182°
2026-04-20 07:05 37.90186 -122.79186 12974 ft 267 kts 182°
2026-04-20 07:05 37.88332 -122.79240 12974 ft 267 kts 182°
2026-04-20 07:05 37.86486 -122.79210 12965 ft 267 kts 173°
2026-04-20 07:05 37.84684 -122.78550 12871 ft 271 kts 162°
2026-04-20 07:06 37.82929 -122.77658 12763 ft 272 kts 161°
2026-04-20 07:06 37.81177 -122.76746 12652 ft 272 kts 161°
2026-04-20 07:06 37.79430 -122.75839 12541 ft 271 kts 161°
2026-04-20 07:06 37.77684 -122.74940 12427 ft 271 kts 161°
2026-04-20 07:07 37.75941 -122.74050 12325 ft 270 kts 161°
2026-04-20 07:07 37.74196 -122.73163 12221 ft 270 kts 161°
2026-04-20 07:07 37.72457 -122.72283 12111 ft 270 kts 161°
2026-04-20 07:07 37.70715 -122.71401 12003 ft 268 kts 161°
2026-04-20 07:08 37.68987 -122.70529 11718 ft 268 kts 161°
2026-04-20 07:08 37.67266 -122.69662 11450 ft 264 kts 161°
2026-04-20 07:08 37.65567 -122.68807 11158 ft 262 kts 161°
2026-04-20 07:08 37.63871 -122.67955 10869 ft 262 kts 161°
2026-04-20 07:09 37.62182 -122.67106 10585 ft 262 kts 161°
2026-04-20 07:09 37.60488 -122.66255 10294 ft 261 kts 161°
2026-04-20 07:09 37.58816 -122.65415 9997 ft 257 kts 161°
2026-04-20 07:09 37.57166 -122.64586 9686 ft 253 kts 161°
2026-04-20 07:10 37.55547 -122.63773 9380 ft 249 kts 161°
2026-04-20 07:10 37.54062 -122.62667 9090 ft 252 kts 142°
2026-04-20 07:10 37.52956 -122.60918 8806 ft 261 kts 126°
2026-04-20 07:10 37.52090 -122.58901 8527 ft 263 kts 123°
2026-04-20 07:11 37.51257 -122.56837 8230 ft 265 kts 122°
2026-04-20 07:11 37.50414 -122.54772 7928 ft 263 kts 123°
2026-04-20 07:11 37.49582 -122.52769 7629 ft 260 kts 123°
2026-04-20 07:11 37.48735 -122.50750 7336 ft 256 kts 123°
2026-04-20 07:12 37.47905 -122.48781 7048 ft 253 kts 123°
2026-04-20 07:12 37.47105 -122.46881 6904 ft 246 kts 124°
2026-04-20 07:12 37.46533 -122.44864 6728 ft 249 kts 101°
2026-04-20 07:12 37.46743 -122.42704 6615 ft 248 kts 82°
2026-04-20 07:13 37.47197 -122.40645 6515 ft 242 kts 80°
2026-04-20 07:13 37.47646 -122.38618 6404 ft 238 kts 85°
2026-04-20 07:13 37.47945 -122.36594 6324 ft 231 kts 87°
2026-04-20 07:13 37.48177 -122.34858 6267 ft 224 kts 88°
2026-04-20 07:14 37.48396 -122.33202 6050 ft 226 kts 88°
2026-04-20 07:14 37.48654 -122.31226 5651 ft 230 kts 88°
2026-04-20 07:14 37.48909 -122.29277 5512 ft 219 kts 88°
2026-04-20 07:14 37.49154 -122.27411 5506 ft 213 kts 88°
2026-04-20 07:15 37.49399 -122.25598 5521 ft 212 kts 88°
2026-04-20 07:15 37.49654 -122.23746 5491 ft 214 kts 88°
2026-04-20 07:15 37.49893 -122.21900 5482 ft 214 kts 89°
2026-04-20 07:15 37.50150 -122.20053 5461 ft 213 kts 87°
2026-04-20 07:16 37.50418 -122.18235 5281 ft 209 kts 88°
2026-04-20 07:16 37.50539 -122.16445 4846 ft 203 kts 105°
2026-04-20 07:16 37.50378 -122.14665 4409 ft 205 kts 103°
2026-04-20 07:16 37.50252 -122.12886 4052 ft 204 kts 103°
2026-04-20 07:17 37.50124 -122.11113 3709 ft 202 kts 103°
2026-04-20 07:17 37.49992 -122.09360 3366 ft 201 kts 103°
2026-04-20 07:17 37.49619 -122.07785 3295 ft 180 kts 134°
2026-04-20 07:17 37.48696 -122.06732 3101 ft 184 kts 142°
2026-04-20 07:18 37.47755 -122.05586 2841 ft 190 kts 137°
2026-04-20 07:18 37.46765 -122.04520 2593 ft 184 kts 145°
2026-04-20 07:18 37.45807 -122.03508 2355 ft 173 kts 140°
2026-04-20 07:18 37.44957 -122.02532 2117 ft 158 kts 142°
2026-04-20 07:19 37.44171 -122.01672 1915 ft 143 kts 142°
2026-04-20 07:19 37.43435 -122.00886 1743 ft 138 kts 142°
2026-04-20 07:19 37.42724 -122.00092 1545 ft 134 kts 141°
2026-04-20 07:19 37.42024 -121.99332 1369 ft 132 kts 142°
2026-04-20 07:20 37.41352 -121.98581 1203 ft 130 kts 141°
2026-04-20 07:20 37.41120 -121.98332 1132 ft 132 kts 144°
2026-04-20 07:20 37.40894 -121.98095 1080 ft 135 kts 141°
2026-04-20 07:21 37.40787 -121.97976 1050 ft 135 kts 141°
2026-04-20 07:21 37.40542 -121.97701 991 ft 135 kts 141°
2026-04-20 07:21 37.40362 -121.97492 941 ft 135 kts 139°
2026-04-20 07:21 37.39953 -121.97024 833 ft 136 kts 140°
2026-04-20 07:22 37.39493 -121.96526 704 ft 135 kts 141°
2026-04-20 07:22 37.39414 -121.96438 678 ft 137 kts 141°
2026-04-20 07:22 37.39013 -121.95984 608 ft 144 kts 140°
2026-04-20 07:22 37.38269 -121.95179 407 ft 139 kts 146°
2026-04-20 07:23 37.37796 -121.94668 288 ft 137 kts 141°
2026-04-20 07:23 37.37091 -121.93890 109 ft 132 kts 141°
2026-04-20 07:23 37.36445 -121.93181 62 ft 110 kts 138°
2026-04-20 07:23 37.35980 -121.92673 56 ft 67 kts 139°
2026-04-20 07:24 37.35722 -121.92390 54 ft 41 kts 137°
2026-04-20 07:24 37.35626 -121.92184 61 ft 23 kts 81°
2026-04-20 07:24 37.35720 -121.92026 63 ft 22 kts 47°
2026-04-20 07:24 37.35826 -121.92024 57 ft 17 kts 318°
2026-04-20 07:25 37.35914 -121.92120 56 ft 16 kts 319°
2026-04-20 07:25 37.35999 -121.92212 56 ft 16 kts 319°
2026-04-20 07:25 37.36087 -121.92308 56 ft 18 kts 319°
2026-04-20 07:25 37.36179 -121.92321 58 ft 14 kts 349°
2026-04-20 07:26 37.36259 -121.92400 56 ft 15 kts 317°
2026-04-20 07:26 37.36344 -121.92494 55 ft 17 kts 318°
2026-04-20 07:26 37.36441 -121.92588 58 ft 18 kts 349°
2026-04-20 07:26 37.36491 -121.92537 59 ft 2 kts 49°
2026-04-20 07:27 37.36494 -121.92533 60 ft 0 kts 49°